Location: Newark
(43.5831°N, 21.3381°E)
Time: 20:20:53
(UTC+00:00)

Envisat - Pass Details

Date: 11 December 2019
Orbit: 764 x 766 km, 98.1° (Epoch: 28 January)

Event Time Altitude Azimuth Distance (km) Brightness Sun altitude
Rises 04:03:27 0° 31° (NNE) 3,242 6.5 -19.8°
Reaches altitude 10° 04:06:51 10° 55° (NE) 2,309 6.0 -19.2°
Maximum altitude 04:09:40 15° 89° (E) 1,988 6.2 -18.7°
Drops below altitude 10° 04:12:28 10° 123° (ESE) 2,299 6.6 -18.2°
Sets 04:15:49 0° 147° (SSE) 3,218 7.0 -17.7°
